Time,TemperatureF,DewpointF,PressureIn,WindDirection,WindDirectionDegrees,WindSpeedMPH,WindSpeedGustMPH,Humidity,HourlyPrecipIn,Conditions,Clouds,dailyrainin,SoftwareType,DateUTC
2013-04-24 00:00:00,43.6,40.0,30.11,NNW,334,0.0,6.0,87,0.00,CLR,,0.00,WeatherDisplay:10.37,2013-04-24 04:00:00,
2013-04-24 00:09:00,43.2,39.6,30.11,NNW,330,2.0,5.0,87,0.00,CLR,,0.00,WeatherDisplay:10.37,2013-04-24 04:09:00,
2013-04-24 00:19:00,42.8,39.2,30.10,NW,308,1.0,5.0,87,0.00,CLR,,0.00,WeatherDisplay:10.37,2013-04-24 04:19:00,
2013-04-24 00:30:00,42.5,39.2,30.10,NNW,341,2.0,4.0,88,0.00,CLR,,0.00,WeatherDisplay:10.37,2013-04-24 04:30:00,
2013-04-24 00:40:00,42.4,39.4,30.10,NNW,345,0.0,5.0,89,0.00,CLR,,0.00,WeatherDisplay:10.37,2013-04-24 04:40:00,
2013-04-24 00:49:00,42.2,39.2,30.09,NNW,329,0.0,4.0,89,0.00,CLR,,0.00,WeatherDisplay:10.37,2013-04-24 04:49:00,
2013-04-24 00:59:00,41.9,38.9,30.08,NNW,340,0.0,1.0,89,0.00,CLR,,0.00,WeatherDisplay:10.37,2013-04-24 04:59:00,
2013-04-24 01:09:00,41.7,39.0,30.07,NNW,340,0.0,3.0,90,0.00,CLR,,0.00,WeatherDisplay:10.37,2013-04-24 05:09:00,
2013-04-24 01:19:00,41.6,38.9,30.07,NNW,327,0.0,5.0,90,0.00,CLR,,0.00,WeatherDisplay:10.37,2013-04-24 05:19:00,
2013-04-24 01:29:00,41.7,39.0,30.07,NW,320,1.0,4.0,90,0.00,CLR,,0.00,WeatherDisplay:10.37,2013-04-24 05:29:00,
2013-04-24 01:39:00,41.6,38.9,30.06,NW,319,1.0,3.0,90,0.00,CLR,,0.00,WeatherDisplay:10.37,2013-04-24 05:39:00,
2013-04-24 01:49:00,41.5,38.7,30.06,NW,319,0.0,5.0,90,0.00,CLR,,0.00,WeatherDisplay:10.37,2013-04-24 05:49:00,
2013-04-24 01:59:00,41.3,38.6,30.05,NW,315,1.0,5.0,90,0.00,CLR,,0.00,WeatherDisplay:10.37,2013-04-24 05:59:00,
2013-04-24 02:09:00,41.2,38.8,30.05,NW,324,2.0,6.0,91,0.00,CLR,,0.00,WeatherDisplay:10.37,2013-04-24 06:09:00,
2013-04-24 02:19:00,41.3,38.9,30.05,NW,324,2.0,5.0,91,0.00,CLR,,0.00,WeatherDisplay:10.37,2013-04-24 06:19:00,
2013-04-24 02:29:00,41.1,38.7,30.05,NNW,334,1.0,5.0,91,0.00,CLR,,0.00,WeatherDisplay:10.37,2013-04-24 06:29:00,
2013-04-24 02:39:00,40.9,38.5,30.05,NW,309,0.0,5.0,91,0.00,CLR,,0.00,WeatherDisplay:10.37,2013-04-24 06:39:00,
2013-04-24 02:49:00,40.8,38.4,30.05,WNW,301,1.0,6.0,91,0.00,CLR,,0.00,WeatherDisplay:10.37,2013-04-24 06:49:00,
2013-04-24 03:00:00,40.8,38.7,30.05,NW,326,2.0,5.0,92,0.00,CLR,,0.00,WeatherDisplay:10.37,2013-04-24 07:00:00,
2013-04-24 03:09:00,40.9,38.7,30.05,NW,310,0.0,3.0,92,0.00,CLR,,0.00,WeatherDisplay:10.37,2013-04-24 07:09:00,
2013-04-24 03:19:00,40.8,38.6,30.05,NW,311,1.0,3.0,92,0.00,CLR,,0.00,WeatherDisplay:10.37,2013-04-24 07:19:00,
2013-04-24 03:29:00,40.4,38.3,30.05,NW,311,0.0,3.0,92,0.00,CLR,,0.00,WeatherDisplay:10.37,2013-04-24 07:29:00,
2013-04-24 03:39:00,40.0,37.9,30.05,NW,311,0.0,0.0,92,0.00,CLR,,0.00,WeatherDisplay:10.37,2013-04-24 07:39:00,
2013-04-24 03:49:00,39.7,37.5,30.04,NW,311,0.0,2.0,92,0.00,CLR,,0.00,WeatherDisplay:10.37,2013-04-24 07:49:00,
2013-04-24 03:59:00,39.3,37.2,30.03,NW,311,0.0,3.0,92,0.00,CLR,,0.00,WeatherDisplay:10.37,2013-04-24 07:59:00,
2013-04-24 04:09:00,38.9,37.1,30.03,NW,311,0.0,1.0,93,0.00,CLR,,0.00,WeatherDisplay:10.37,2013-04-24 08:09:00,
2013-04-24 04:19:00,39.0,37.1,30.03,NW,311,0.0,2.0,93,0.00,CLR,,0.00,WeatherDisplay:10.37,2013-04-24 08:19:00,
2013-04-24 04:29:00,38.8,37.2,30.04,NW,311,1.0,4.0,94,0.00,CLR,,0.00,WeatherDisplay:10.37,2013-04-24 08:29:00,
2013-04-24 04:39:00,38.8,37.2,30.04,NW,311,0.0,2.0,94,0.00,CLR,,0.00,WeatherDisplay:10.37,2013-04-24 08:39:00,
2013-04-24 04:49:00,38.7,37.1,30.04,NW,311,0.0,2.0,94,0.00,CLR,,0.00,WeatherDisplay:10.37,2013-04-24 08:49:00,
2013-04-24 04:59:00,38.4,36.8,30.04,NW,311,0.0,1.0,94,0.00,CLR,,0.00,WeatherDisplay:10.37,2013-04-24 08:59:00,
2013-04-24 05:09:00,38.2,36.6,30.04,NW,311,0.0,3.0,94,0.00,CLR,,0.00,WeatherDisplay:10.37,2013-04-24 09:09:00,
2013-04-24 05:19:00,37.9,36.3,30.04,NW,311,0.0,1.0,94,0.00,CLR,,0.00,WeatherDisplay:10.37,2013-04-24 09:19:00,
2013-04-24 05:29:00,37.7,36.4,30.04,NW,311,0.0,1.0,95,0.00,CLR,,0.00,WeatherDisplay:10.37,2013-04-24 09:29:00,
2013-04-24 05:39:00,37.7,36.4,30.05,NW,311,0.0,0.0,95,0.00,CLR,,0.00,WeatherDisplay:10.37,2013-04-24 09:39:00,
2013-04-24 05:49:00,37.5,36.2,30.05,NW,311,0.0,0.0,95,0.00,CLR,,0.00,WeatherDisplay:10.37,2013-04-24 09:49:00,
2013-04-24 05:59:00,37.2,35.9,30.05,NW,311,0.0,0.0,95,0.00,CLR,,0.00,WeatherDisplay:10.37,2013-04-24 09:59:00,
2013-04-24 06:09:00,37.2,35.9,30.05,NW,311,0.0,0.0,95,0.00,CLR,,0.00,WeatherDisplay:10.37,2013-04-24 10:09:00,
2013-04-24 06:19:00,37.0,35.7,30.05,NW,311,0.0,0.0,95,0.00,CLR,,0.00,WeatherDisplay:10.37,2013-04-24 10:19:00,
2013-04-24 06:29:00,36.9,35.6,30.06,NW,311,0.0,1.0,95,0.00,CLR,,0.00,WeatherDisplay:10.37,2013-04-24 10:29:00,
2013-04-24 06:39:00,36.9,35.9,30.06,NW,311,0.0,0.0,96,0.00,CLR,,0.00,WeatherDisplay:10.37,2013-04-24 10:39:00,
2013-04-24 06:49:00,37.1,36.1,30.06,NW,311,0.0,0.0,96,0.00,CLR,,0.00,WeatherDisplay:10.37,2013-04-24 10:49:00,
2013-04-24 06:59:00,37.9,37.1,30.06,NW,311,0.0,1.0,97,0.00,CLR,,0.00,WeatherDisplay:10.37,2013-04-24 10:59:00,
2013-04-24 07:09:00,39.1,38.3,30.06,NW,311,1.0,3.0,97,0.00,CLR,,0.00,WeatherDisplay:10.37,2013-04-24 11:09:00,
2013-04-24 07:19:00,40.0,39.2,30.05,NW,311,0.0,3.0,97,0.00,CLR,,0.00,WeatherDisplay:10.37,2013-04-24 11:19:00,
2013-04-24 07:29:00,40.9,40.1,30.05,NW,311,0.0,4.0,97,0.00,CLR,,0.00,WeatherDisplay:10.37,2013-04-24 11:29:00,
2013-04-24 07:39:00,41.8,40.7,30.05,North,5,0.0,4.0,96,0.00,CLR,,0.00,WeatherDisplay:10.37,2013-04-24 11:39:00,
2013-04-24 07:49:00,42.7,41.6,30.06,NW,318,1.0,5.0,96,0.00,CLR,,0.00,WeatherDisplay:10.37,2013-04-24 11:49:00,
2013-04-24 07:59:00,43.8,41.9,30.06,NNW,329,0.0,6.0,93,0.00,CLR,,0.00,WeatherDisplay:10.37,2013-04-24 11:59:00,
2013-04-24 08:09:00,45.3,42.5,30.05,NNW,334,1.0,5.0,90,0.00,CLR,,0.00,WeatherDisplay:10.37,2013-04-24 12:09:00,
2013-04-24 08:19:00,47.0,43.6,30.04,NNW,333,1.0,3.0,88,0.00,CLR,,0.00,WeatherDisplay:10.37,2013-04-24 12:19:00,
2013-04-24 08:29:00,48.8,44.1,30.04,NW,324,3.0,7.0,84,0.00,CLR,,0.00,WeatherDisplay:10.37,2013-04-24 12:29:00,
2013-04-24 08:39:00,49.9,44.3,30.04,NNW,337,2.0,5.0,81,0.00,CLR,,0.00,WeatherDisplay:10.37,2013-04-24 12:39:00,
2013-04-24 08:49:00,51.3,45.0,30.04,NNW,330,1.0,4.0,79,0.00,CLR,,0.00,WeatherDisplay:10.37,2013-04-24 12:49:00,
2013-04-24 08:59:00,52.4,46.1,30.03,WNW,298,2.0,5.0,79,0.00,CLR,,0.00,WeatherDisplay:10.37,2013-04-24 12:59:00,
2013-04-24 09:09:00,53.4,46.0,30.03,WNW,292,5.0,8.0,76,0.00,CLR,,0.00,WeatherDisplay:10.37,2013-04-24 13:09:00,
2013-04-24 09:19:00,54.1,46.3,30.03,West,281,2.0,8.0,75,0.00,CLR,,0.00,WeatherDisplay:10.37,2013-04-24 13:19:00,
2013-04-24 09:29:00,55.3,47.1,30.03,NW,307,1.0,8.0,74,0.00,CLR,,0.00,WeatherDisplay:10.37,2013-04-24 13:29:00,
2013-04-24 09:39:00,55.5,46.6,30.03,WSW,244,1.0,7.0,72,0.00,CLR,,0.00,WeatherDisplay:10.37,2013-04-24 13:39:00,
2013-04-24 09:49:00,56.0,47.1,30.02,WNW,298,5.0,7.0,72,0.00,CLR,,0.00,WeatherDisplay:10.37,2013-04-24 13:49:00,
2013-04-24 09:59:00,56.6,47.7,30.02,WSW,256,5.0,7.0,72,0.00,CLR,,0.00,WeatherDisplay:10.37,2013-04-24 13:59:00,
2013-04-24 10:09:00,56.9,47.2,30.02,NW,307,2.0,7.0,70,0.00,CLR,,0.00,WeatherDisplay:10.37,2013-04-24 14:09:00,
2013-04-24 10:19:00,57.1,47.4,30.02,NW,309,2.0,8.0,70,0.00,CLR,,0.00,WeatherDisplay:10.37,2013-04-24 14:19:00,
2013-04-24 10:29:00,58.6,48.5,30.01,West,274,3.0,8.0,69,0.00,CLR,,0.00,WeatherDisplay:10.37,2013-04-24 14:29:00,
2013-04-24 10:39:00,58.4,48.7,30.01,WSW,254,2.0,8.0,70,0.00,CLR,,0.00,WeatherDisplay:10.37,2013-04-24 14:39:00,
2013-04-24 10:49:00,59.0,47.7,30.00,SW,233,1.0,7.0,66,0.00,CLR,,0.00,WeatherDisplay:10.37,2013-04-24 14:49:00,
2013-04-24 10:59:00,59.1,48.2,30.00,South,181,3.0,8.0,67,0.00,CLR,,0.00,WeatherDisplay:10.37,2013-04-24 14:59:00,
2013-04-24 11:09:00,59.3,48.3,30.01,SW,228,1.0,8.0,67,0.00,CLR,,0.00,WeatherDisplay:10.37,2013-04-24 15:09:00,
2013-04-24 11:19:00,60.3,48.5,30.00,SW,219,5.0,8.0,65,0.00,CLR,,0.00,WeatherDisplay:10.37,2013-04-24 15:19:00,
2013-04-24 11:29:00,60.6,49.2,29.99,SW,220,5.0,9.0,66,0.00,CLR,,0.00,WeatherDisplay:10.37,2013-04-24 15:29:00,
2013-04-24 11:39:00,61.0,49.1,29.99,SSW,212,3.0,12.0,65,0.00,CLR,,0.00,WeatherDisplay:10.37,2013-04-24 15:39:00,
2013-04-24 11:49:00,62.0,50.1,29.98,WSW,242,2.0,7.0,65,0.00,CLR,,0.00,WeatherDisplay:10.37,2013-04-24 15:49:00,
2013-04-24 11:59:00,62.5,50.2,29.97,SSW,208,6.0,9.0,64,0.00,CLR,,0.00,WeatherDisplay:10.37,2013-04-24 15:59:00,
2013-04-24 12:09:00,62.4,50.5,29.96,SSW,205,3.0,12.0,65,0.00,CLR,,0.00,WeatherDisplay:10.37,2013-04-24 16:09:00,
2013-04-24 12:19:00,63.4,51.0,29.96,WSW,243,5.0,8.0,64,0.00,CLR,,0.00,WeatherDisplay:10.37,2013-04-24 16:19:00,
2013-04-24 12:29:00,64.3,51.4,29.95,WSW,239,6.0,9.0,63,0.00,CLR,,0.00,WeatherDisplay:10.37,2013-04-24 16:29:00,
2013-04-24 12:39:00,64.5,51.2,29.94,WSW,237,1.0,10.0,62,0.00,CLR,,0.00,WeatherDisplay:10.37,2013-04-24 16:39:00,
2013-04-24 12:49:00,65.1,51.8,29.93,SSW,207,3.0,10.0,62,0.00,CLR,,0.00,WeatherDisplay:10.37,2013-04-24 16:49:00,
2013-04-24 12:59:00,65.9,52.5,29.92,SW,220,7.0,12.0,62,0.00,CLR,,0.00,WeatherDisplay:10.37,2013-04-24 16:59:00,
2013-04-24 13:09:00,66.2,52.4,29.92,SSW,197,7.0,13.0,61,0.00,CLR,,0.00,WeatherDisplay:10.37,2013-04-24 17:09:00,
2013-04-24 13:19:00,67.1,53.2,29.92,SSW,213,3.0,12.0,61,0.00,CLR,,0.00,WeatherDisplay:10.37,2013-04-24 17:19:00,
2013-04-24 13:29:00,67.6,53.3,29.91,SW,217,7.0,12.0,60,0.00,CLR,,0.00,WeatherDisplay:10.37,2013-04-24 17:29:00,
2013-04-24 13:39:00,68.4,54.0,29.90,WSW,241,7.0,12.0,60,0.00,CLR,,0.00,WeatherDisplay:10.37,2013-04-24 17:39:00,
2013-04-24 13:49:00,68.5,53.6,29.90,SW,224,5.0,12.0,59,0.00,CLR,,0.00,WeatherDisplay:10.37,2013-04-24 17:49:00,
2013-04-24 13:59:00,68.3,53.9,29.90,South,184,5.0,16.0,60,0.00,CLR,,0.00,WeatherDisplay:10.37,2013-04-24 17:59:00,
2013-04-24 14:09:00,69.0,53.6,29.90,SSW,203,5.0,14.0,58,0.00,CLR,,0.00,WeatherDisplay:10.37,2013-04-24 18:09:00,
2013-04-24 14:19:00,69.3,53.9,29.90,SSW,213,6.0,16.0,58,0.00,CLR,,0.00,WeatherDisplay:10.37,2013-04-24 18:19:00,
2013-04-24 14:29:00,69.5,54.1,29.89,SW,227,3.0,9.0,58,0.00,CLR,,0.00,WeatherDisplay:10.37,2013-04-24 18:29:00,
2013-04-24 14:39:00,69.4,54.5,29.88,SSE,164,9.0,15.0,59,0.00,CLR,,0.00,WeatherDisplay:10.37,2013-04-24 18:39:00,
2013-04-24 14:49:00,68.7,53.8,29.88,South,169,6.0,12.0,59,0.00,CLR,,0.00,WeatherDisplay:10.37,2013-04-24 18:49:00,
2013-04-24 14:59:00,69.2,54.3,29.87,SSE,164,7.0,14.0,59,0.00,CLR,,0.00,WeatherDisplay:10.37,2013-04-24 18:59:00,
2013-04-24 15:09:00,68.2,54.2,29.87,SE,145,6.0,14.0,61,0.00,CLR,,0.00,WeatherDisplay:10.37,2013-04-24 19:09:00,
2013-04-24 15:19:00,68.3,54.8,29.86,SSE,151,6.0,13.0,62,0.00,CLR,,0.00,WeatherDisplay:10.37,2013-04-24 19:19:00,
2013-04-24 15:29:00,67.2,53.7,29.85,SSE,148,5.0,16.0,62,0.00,CLR,,0.00,WeatherDisplay:10.37,2013-04-24 19:29:00,
2013-04-24 15:39:00,66.5,53.5,29.86,SSE,155,6.0,15.0,63,0.00,CLR,,0.00,WeatherDisplay:10.37,2013-04-24 19:39:00,
2013-04-24 15:49:00,66.4,53.8,29.85,SSE,147,7.0,16.0,64,0.00,CLR,,0.00,WeatherDisplay:10.37,2013-04-24 19:49:00,
2013-04-24 15:59:00,66.3,54.2,29.85,SSE,167,7.0,13.0,65,0.00,CLR,,0.00,WeatherDisplay:10.37,2013-04-24 19:59:00,
2013-04-24 16:09:00,66.0,53.9,29.85,SSE,148,6.0,13.0,65,0.00,CLR,,0.00,WeatherDisplay:10.37,2013-04-24 20:09:00,
2013-04-24 16:19:00,66.3,54.6,29.85,SE,132,5.0,16.0,66,0.00,CLR,,0.00,WeatherDisplay:10.37,2013-04-24 20:19:00,
2013-04-24 16:29:00,66.2,54.1,29.85,SE,141,7.0,12.0,65,0.00,CLR,,0.00,WeatherDisplay:10.37,2013-04-24 20:29:00,
2013-04-24 16:39:00,65.5,54.2,29.85,SSE,149,6.0,12.0,67,0.00,CLR,,0.00,WeatherDisplay:10.37,2013-04-24 20:39:00,
2013-04-24 16:49:00,65.6,53.9,29.85,SE,131,6.0,13.0,66,0.00,CLR,,0.00,WeatherDisplay:10.37,2013-04-24 20:49:00,
2013-04-24 16:59:00,64.7,53.5,29.85,South,175,7.0,16.0,67,0.00,CLR,,0.00,WeatherDisplay:10.37,2013-04-24 20:59:00,
2013-04-24 17:09:00,63.9,53.5,29.85,SSE,151,5.0,13.0,69,0.00,CLR,,0.00,WeatherDisplay:10.37,2013-04-24 21:09:00,
2013-04-24 17:19:00,63.5,53.5,29.85,SSE,165,3.0,14.0,70,0.00,CLR,,0.00,WeatherDisplay:10.37,2013-04-24 21:19:00,
2013-04-24 17:29:00,63.3,53.4,29.85,South,180,3.0,12.0,70,0.00,CLR,,0.00,WeatherDisplay:10.37,2013-04-24 21:29:00,
2013-04-24 17:39:00,62.7,53.2,29.85,SSE,151,5.0,12.0,71,0.00,CLR,,0.00,WeatherDisplay:10.37,2013-04-24 21:39:00,
2013-04-24 17:49:00,61.7,52.6,29.84,SSE,157,10.0,14.0,72,0.00,CLR,,0.00,WeatherDisplay:10.37,2013-04-24 21:49:00,
2013-04-24 17:59:00,60.1,52.2,29.83,SSE,149,9.0,17.0,75,0.00,CLR,,0.00,WeatherDisplay:10.37,2013-04-24 21:59:00,
2013-04-24 18:09:00,59.0,52.1,29.83,SE,142,7.0,13.0,78,0.00,CLR,,0.00,WeatherDisplay:10.37,2013-04-24 22:09:00,
2013-04-24 18:19:00,57.9,51.7,29.83,SE,137,7.0,17.0,80,0.00,CLR,,0.00,WeatherDisplay:10.37,2013-04-24 22:19:00,
2013-04-24 18:29:00,57.1,51.3,29.83,SE,136,5.0,14.0,81,0.00,CLR,,0.00,WeatherDisplay:10.37,2013-04-24 22:29:00,
2013-04-24 18:39:00,56.1,51.1,29.83,SSE,166,5.0,13.0,83,0.00,CLR,,0.00,WeatherDisplay:10.37,2013-04-24 22:39:00,
2013-04-24 18:49:00,55.5,50.7,29.83,South,172,6.0,14.0,84,0.00,CLR,,0.00,WeatherDisplay:10.37,2013-04-24 22:49:00,
2013-04-24 18:59:00,54.9,50.5,29.83,SSE,161,5.0,17.0,85,0.00,CLR,,0.00,WeatherDisplay:10.37,2013-04-24 22:59:00,
2013-04-24 19:09:00,53.7,49.6,29.82,SSE,153,5.0,17.0,86,0.00,BKN,,0.00,WeatherDisplay:10.37,2013-04-24 23:09:00,
2013-04-24 19:19:00,53.1,49.6,29.83,ESE,122,6.0,13.0,88,0.00,BKN,,0.00,WeatherDisplay:10.37,2013-04-24 23:19:00,
2013-04-24 19:29:00,52.5,49.3,29.83,South,174,5.0,12.0,89,0.00,BKN,,0.00,WeatherDisplay:10.37,2013-04-24 23:29:00,
2013-04-24 19:39:00,52.1,49.3,29.84,SSE,161,6.0,17.0,90,0.00,BKN,,0.00,WeatherDisplay:10.37,2013-04-24 23:39:00,
2013-04-24 19:49:00,51.7,49.2,29.84,South,181,5.0,17.0,91,0.00,BKN,,0.00,WeatherDisplay:10.37,2013-04-24 23:49:00,
2013-04-24 19:59:00,51.4,49.2,29.86,SSE,166,3.0,12.0,92,0.00,BKN,,0.00,WeatherDisplay:10.37,2013-04-24 23:59:00,
2013-04-24 20:09:00,51.3,49.1,29.85,South,170,3.0,9.0,92,0.00,OVC,,0.00,WeatherDisplay:10.37,2013-04-25 00:09:00,
2013-04-24 20:19:00,51.3,49.3,29.86,South,170,2.0,10.0,93,0.00,OVC,,0.00,WeatherDisplay:10.37,2013-04-25 00:19:00,
2013-04-24 20:29:00,51.2,49.2,29.86,South,178,5.0,9.0,93,0.00,OVC,,0.00,WeatherDisplay:10.37,2013-04-25 00:29:00,
2013-04-24 20:39:00,51.1,49.1,29.86,SE,143,3.0,9.0,93,0.00,OVC,,0.00,WeatherDisplay:10.37,2013-04-25 00:39:00,
2013-04-24 20:49:00,51.0,49.3,29.86,SSE,158,3.0,17.0,94,0.00,OVC,,0.00,WeatherDisplay:10.37,2013-04-25 00:49:00,
2013-04-24 20:59:00,51.0,49.3,29.86,SSE,164,2.0,6.0,94,0.00,OVC,,0.00,WeatherDisplay:10.37,2013-04-25 00:59:00,
2013-04-24 21:09:00,51.0,49.3,29.86,South,169,3.0,7.0,94,0.00,BKN,,0.00,WeatherDisplay:10.37,2013-04-25 01:09:00,
2013-04-24 21:19:00,50.9,49.3,29.86,South,171,3.0,7.0,94,0.00,BKN,,0.00,WeatherDisplay:10.37,2013-04-25 01:19:00,
2013-04-24 21:29:00,51.0,49.3,29.87,SSE,166,3.0,9.0,94,0.00,BKN,,0.00,WeatherDisplay:10.37,2013-04-25 01:29:00,
2013-04-24 21:39:00,50.9,49.5,29.87,SE,146,3.0,5.0,95,0.00,BKN,,0.00,WeatherDisplay:10.37,2013-04-25 01:39:00,
2013-04-24 21:49:00,51.0,49.6,29.87,SSE,159,3.0,17.0,95,0.00,BKN,,0.00,WeatherDisplay:10.37,2013-04-25 01:49:00,
2013-04-24 21:59:00,50.9,49.5,29.87,SSE,163,1.0,5.0,95,0.00,BKN,,0.00,WeatherDisplay:10.37,2013-04-25 01:59:00,
2013-04-24 22:09:00,51.0,49.6,29.87,SSE,167,2.0,17.0,95,0.00,BKN,,0.00,WeatherDisplay:10.37,2013-04-25 02:09:00,
2013-04-24 22:19:00,51.0,49.6,29.86,SSE,159,1.0,7.0,95,0.00,BKN,,0.00,WeatherDisplay:10.37,2013-04-25 02:19:00,
2013-04-24 22:29:00,51.1,49.7,29.86,South,177,1.0,17.0,95,0.00,BKN,,0.00,WeatherDisplay:10.37,2013-04-25 02:29:00,
2013-04-24 22:39:00,51.3,49.9,29.86,SSE,164,3.0,7.0,95,0.00,BKN,,0.00,WeatherDisplay:10.37,2013-04-25 02:39:00,
2013-04-24 22:49:00,51.3,49.9,29.86,SSE,157,3.0,17.0,95,0.00,BKN,,0.00,WeatherDisplay:10.37,2013-04-25 02:49:00,
2013-04-24 22:59:00,51.3,49.9,29.86,SSE,152,3.0,7.0,95,0.00,BKN,,0.00,WeatherDisplay:10.37,2013-04-25 02:59:00,
2013-04-24 23:09:00,51.3,49.9,29.86,SSE,166,1.0,5.0,95,0.00,BKN,,0.00,WeatherDisplay:10.37,2013-04-25 03:09:00,
2013-04-24 23:19:00,51.1,49.7,29.86,South,170,0.0,17.0,95,0.00,BKN,,0.00,WeatherDisplay:10.37,2013-04-25 03:19:00,
2013-04-24 23:29:00,51.1,49.7,29.86,South,175,1.0,7.0,95,0.00,BKN,,0.00,WeatherDisplay:10.37,2013-04-25 03:29:00,
2013-04-24 23:39:00,51.1,50.0,29.85,SSE,163,1.0,6.0,96,0.00,BKN,,0.00,WeatherDisplay:10.37,2013-04-25 03:39:00,
2013-04-24 23:49:00,51.3,50.2,29.85,SSE,164,3.0,17.0,96,0.00,BKN,,0.00,WeatherDisplay:10.37,2013-04-25 03:49:00,
2013-04-24 23:59:00,51.4,50.3,29.85,South,171,3.0,17.0,96,0.00,BKN,,0.00,WeatherDisplay:10.37,2013-04-25 03:59:00,